EHI
0 0 0 0 0 0 0 0 0 1 2 4 4 6 7 8 9 12 14 13 13 16 20 23 24 25 26 27 29 30 29 27 25 22 18 14 12 9 5 3 2 1 1 1
0 0 0 0 0 0 0 0 0 1 3 4 6 8 9 8 9 11 12 13 15 18 21 23 23 24 25 27 28 28 25 22 20 18 16 13 11 9 6 5 4 4 4 4
0 0 0 0 0 0 0 0 1 2 3 4 6 8 8 7 8 8 10 12 16 20 22 23 23 23 23 23 23 22 18 16 15 14 13 12 10 8 7 8 8 8 7 7
0 0 0 0 0 0 0 0 1 2 2 2 4 5 5 5 6 7 8 12 16 19 21 22 22 21 20 18 17 16 13 12 12 11 11 11 10 8 9 10 10 9 8 8
1 0 0 0 0 0 0 0 1 1 1 1 2 2 3 3 5 8 12 15 16 17 18 18 19 20 19 18 16 12 9 8 9 9 10 10 11 11 10 10 8 6 6 6
2 1 0 0 0 0 0 0 1 1 0 1 2 3 4 4 6 11 15 16 14 13 14 15 17 18 19 19 17 13 9 7 8 9 9 10 11 12 10 8 5 3 3 5
2 1 0 0 0 0 0 2 2 1 1 3 5 6 7 6 8 12 16 15 12 11 13 14 16 18 19 20 19 15 12 10 9 9 8 8 9 9 8 6 4 2 3 4
1 1 0 0 0 1 2 4 5 3 3 5 6 6 6 7 8 10 13 14 13 12 13 15 16 18 20 20 18 16 14 12 10 9 9 7 6 5 5 4 3 3 4 5
2 1 0 0 0 2 4 5 4 3 2 3 3 2 3 5 6 8 10 13 15 15 14 15 15 17 19 18 15 14 13 11 9 9 9 8 6 5 4 4 3 3 4 4
1 1 0 0 0 1 3 3 2 2 2 2 1 0 1 4 7 7 8 11 15 17 16 14 13 14 16 15 13 12 11 9 9 9 9 7 6 5 4 3 3 3 3 3
0 1 1 0 0 1 2 2 1 1 2 2 2 1 2 6 9 9 8 11 16 19 18 15 13 13 13 13 12 11 10 9 9 9 7 5 5 4 3 2 2 2 2 2
1 2 1 0 0 0 1 1 1 1 1 1 1 2 4 7 10 10 9 11 15 19 19 17 15 13 12 11 11 10 9 9 8 7 4 2 3 3 1 1 1 1 1 1
1 1 1 0 0 0 0 1 1 1 1 2 2 3 5 8 9 9 8 9 13 17 17 15 14 12 10 9 10 10 9 8 5 3 1 0 1 1 1 0 0 0 0 0
1 1 1 1 1 0 0 1 2 3 3 4 4 4 5 6 7 8 8 9 11 13 13 12 13 12 9 8 9 8 6 4 2 0 0 0 0 0 0 0 0 0 0 0
1 2 2 2 1 0 1 2 3 3 4 6 6 5 4 5 6 7 8 9 10 11 12 12 13 12 9 7 6 4 2 1 0 1 1 1 1 0 0 0 0 0 0 0
1 2 3 3 2 0 1 2 3 2 2 4 6 5 4 5 7 7 6 7 8 9 10 10 10 10 7 5 3 1 1 0 1 2 2 2 1 0 0 0 0 0 0 0
0 1 3 3 2 1 2 3 3 2 1 2 3 4 4 6 7 6 5 4 5 6 6 6 6 6 5 3 1 1 2 1 1 2 2 2 1 0 0 0 0 0 0 0
0 1 2 2 2 2 3 5 5 5 3 3 4 5 6 6 6 6 4 3 3 3 3 3 3 3 3 2 1 1 2 2 1 1 1 1 0 0 0 0 0 0 0 0
0 0 1 1 1 2 3 5 6 5 5 4 5 7 7 7 6 6 5 4 3 3 3 3 2 2 2 1 0 1 1 1 1 0 0 0 0 0 0 0 0 0 0 0
0 0 0 0 0 1 1 3 3 3 4 4 5 6 7 7 6 6 6 4 3 3 3 2 2 2 1 0 0 0 0 0 0 0 0 0 0 0 0 0 0 0 0 0
0 0 0 0 0 0 0 1 1 1 2 2 3 4 5 6 6 6 5 4 3 3 2 1 2 2 1 0 0 0 0 0 0 0 0 0 0 0 0 0 0 0 0 0
0 0 0 0 0 0 0 0 0 0 1 1 1 2 3 5 6 5 4 3 2 1 1 0 1 1 0 0 0 0 0 0 0 0 0 0 0 0 0 0 0 0 0 0
0 0 0 0 0 0 0 0 0 0 0 0 0 1 2 4 4 4 3 1 1 0 0 0 0 0 0 0 0 0 0 0 0 0 0 0 0 0 0 0 0 0 0 0
0 0 0 0 0 0 0 0 0 0 0 0 0 1 2 2 2 2 2 1 0 0 0 0 0 0 0 0 0 0 0 0 0 0 0 0 0 0 0 0 0 0 0 0
0 0 0 0 0 0 0 0 0 0 0 0 0 0 1 1 0 1 1 1 0 0 0 0 0 0 0 0 0 0 0 0 0 0 0 0 0 0 0 0 0 0 0 0
0 0 0 0 0 0 0 0 0 0 0 0 0 0 0 0 0 0 0 1 1 0 0 0 0 0 0 0 0 0 0 0 0 0 0 0 0 0 0 0 0 0 0 0
0 0 0 0 0 0 0 0 0 0 0 0 0 0 0 0 0 0 0 1 1 1 0 0 0 0 0 0 0 0 0 0 0 0 0 0 0 0 0 0 0 0 0 0
Wind_Speed
11 9 8 10 11 12 14 13 13 10 7 4 2 3 2 2 2 2 2 3 4 4 4 4 4 4 5 5 5 5 5 5 4 4 4 4 3 4 4 4 4 4 4 4
11 11 10 11 11 11 12 11 11 9 7 3 1 2 2 2 3 3 2 2 3 4 4 4 4 3 5 5 5 5 5 4 4 3 4 4 4 4 4 4 4 4 5 4
9 8 9 11 9 9 9 8 8 8 5 1 2 2 2 2 3 3 2 2 3 4 4 4 4 3 4 5 5 4 4 4 4 3 3 3 4 4 4 4 4 4 4 4
7 8 11 3 0 4 6 5 4 3 2 1 2 1 1 1 1 1 1 2 2 3 4 4 4 4 3 4 4 4 4 4 4 4 3 3 4 4 3 3 4 4 4 5
6 9 8 3 1 3 5 4 1 2 1 1 1 2 2 1 0 0 1 2 2 3 4 4 4 4 4 4 4 3 3 3 3 3 3 4 3 3 3 3 4 5 5 5
7 9 8 2 2 3 6 6 1 1 2 1 3 4 1 1 0 1 1 2 3 4 5 5 4 4 4 4 3 3 2 2 2 3 3 3 3 3 3 3 4 4 4 4
8 8 4 4 2 3 7 0 3 2 2 2 3 3 2 0 0 1 2 3 4 4 4 5 4 4 4 3 2 2 1 2 2 2 2 2 2 2 3 3 3 3 4 4
7 8 3 4 1 2 4 4 3 2 2 2 1 1 1 1 1 2 3 4 4 4 4 4 4 4 4 3 2 1 2 2 2 2 2 1 2 2 2 2 3 3 4 4
3 2 3 3 3 4 3 3 3 3 3 2 2 2 1 1 1 2 3 3 3 4 4 4 4 3 3 2 2 2 2 2 2 2 1 1 2 2 2 3 3 3 3 3
4 2 2 3 3 3 4 4 4 4 3 3 3 2 2 2 2 2 2 3 3 3 4 3 3 3 3 2 2 2 2 2 2 2 2 2 1 1 1 2 2 2 2 2
6 4 4 3 4 5 5 5 4 4 3 3 2 2 2 2 2 2 2 2 2 3 3 3 3 3 2 2 2 3 3 2 2 3 2 2 1 1 1 1 2 2 2 2
4 4 5 5 6 7 6 5 4 4 3 2 2 2 2 2 2 2 2 2 2 3 3 3 2 2 2 2 3 3 3 3 2 2 2 2 2 1 4 2 3 2 3 3
5 6 6 7 7 6 5 5 5 4 3 2 2 2 2 2 2 2 2 2 2 2 3 3 3 2 2 2 3 3 3 2 2 2 2 2 2 2 2 2 2 1 1 1
5 6 6 6 6 5 4 4 4 3 2 1 1 2 2 2 2 2 2 2 2 3 3 3 2 2 2 2 2 2 3 2 2 2 2 2 2 2 2 3 2 2 2 2
6 6 6 6 5 5 4 3 3 2 1 1 1 2 2 2 2 2 1 1 2 3 3 3 3 2 2 3 3 3 3 2 2 2 3 2 3 3 2 2 2 2 2 3
6 6 6 5 5 5 4 3 3 2 1 1 2 2 2 2 1 1 2 2 2 2 2 2 2 2 3 3 3 3 3 2 3 3 3 3 3 3 2 2 2 2 2 1
5 6 5 5 5 4 4 3 3 2 1 1 1 2 2 2 2 2 2 1 1 1 1 1 1 2 2 3 4 3 3 3 5 4 3 3 3 3 3 3 2 2 2 1
5 5 5 4 4 3 3 2 1 0 1 1 1 2 2 2 2 2 2 2 2 1 1 1 1 2 2 2 3 3 3 3 3 3 3 3 3 3 3 3 3 3 2 3
4 4 4 3 2 2 2 1 0 0 0 1 1 2 2 2 2 2 2 2 2 2 1 1 0 2 2 2 3 3 3 4 4 3 3 3 4 4 3 3 3 2 2 2
4 3 3 2 1 1 1 1 0 0 0 1 1 2 1 1 2 2 2 2 2 1 1 1 2 2 2 2 4 3 3 3 3 3 3 4 4 4 3 3 3 2 3 2
3 3 2 1 1 1 1 1 0 0 1 1 2 1 1 2 2 2 3 2 1 1 1 2 3 2 2 1 4 4 3 3 3 3 3 3 3 3 3 3 3 3 3 2
3 2 2 2 1 1 1 1 1 1 1 1 1 1 1 2 2 2 2 1 1 1 2 3 2 1 1 4 4 3 3 2 3 2 3 3 3 3 3 3 3 3 2 2
3 2 2 2 2 1 1 1 1 1 1 2 2 2 2 2 2 2 2 1 1 1 3 1 2 2 2 5 4 3 3 3 3 3 3 3 3 3 3 3 3 3 3 3
2 2 2 2 1 1 1 1 1 1 2 2 2 2 2 2 2 2 2 2 1 2 2 2 2 2 5 5 4 3 3 3 3 3 3 3 3 3 3 3 3 3 3 4
1 2 2 2 1 1 1 1 1 1 2 2 2 2 2 2 2 1 1 1 2 3 2 2 4 4 5 4 3 3 3 2 2 2 3 3 3 3 3 3 3 3 3 3
2 1 1 2 2 2 2 1 1 1 1 1 1 1 1 1 1 2 2 3 3 3 3 2 3 5 5 4 3 3 3 2 3 4 4 4 4 3 3 3 4 3 3 3
2 2 1 2 1 2 2 2 1 1 1 1 1 1 1 1 1 1 2 2 2 3 3 2 2 3 3 3 3 3 2 2 3 3 3 3 3 3 3 3 3 3 3 2
Wind_Direction
259 261 256 244 240 239 241 252 259 263 257 261 265 238 214 180 170 190 190 179 164 160 153 158 161 168 169 167 161 161 164 165 171 177 179 183 188 192 196 200 204 206 208 210
252 247 246 249 245 242 245 250 254 259 263 280 238 210 197 185 185 198 204 189 172 171 168 165 161 166 166 156 154 161 164 160 162 172 181 185 192 197 197 202 209 213 217 216
247 240 244 241 239 238 237 244 250 253 267 274 242 215 213 203 201 206 200 190 181 175 173 164 160 161 163 156 155 157 159 166 169 170 185 198 202 198 201 199 208 219 221 219
250 235 237 225 200 249 245 241 254 268 290 276 274 250 229 222 214 200 184 168 161 153 147 149 146 149 149 151 156 155 157 165 170 173 188 203 210 204 202 204 208 215 217 215
245 240 236 199 208 257 247 232 261 263 281 333 108 190 176 112 166 209 172 141 149 150 144 143 142 146 149 156 160 158 163 167 172 180 194 202 211 212 208 211 216 219 216 215
243 249 242 182 68 305 254 224 81 316 298 285 238 241 145 86 196 117 126 133 141 141 136 136 140 148 146 148 151 157 169 179 184 193 205 209 207 217 216 215 222 225 217 217
250 249 242 48 18 267 241 340 26 334 303 279 273 343 47 97 122 139 143 140 142 144 142 141 142 143 146 147 156 162 151 171 181 193 203 205 209 227 224 220 222 226 218 217
246 246 227 38 329 300 0 10 350 335 311 294 330 40 132 161 154 152 154 149 148 146 141 143 148 150 145 133 138 156 158 165 167 185 208 182 201 227 222 216 213 219 221 222
271 293 23 347 350 360 339 328 324 319 316 294 266 244 206 170 157 151 149 149 160 157 149 149 153 153 143 135 144 159 172 175 179 192 210 197 206 218 222 215 224 218 220 226
258 255 311 320 329 325 318 316 312 306 296 271 256 237 206 173 161 154 151 153 159 159 151 143 144 144 137 138 155 169 179 186 193 199 196 190 220 223 243 240 233 235 236 255
255 273 285 288 320 321 317 307 299 300 290 271 243 222 204 179 161 151 141 140 155 158 149 139 139 143 147 153 165 175 186 194 201 202 186 190 204 6 309 21 3 308 292 274
284 310 298 307 314 310 305 305 303 301 300 273 233 223 206 174 157 157 152 152 160 161 152 146 149 154 162 170 184 193 195 194 200 204 193 195 180 132 58 53 68 54 13 345
292 308 308 302 299 298 295 297 297 293 284 266 230 207 192 168 162 159 158 171 172 172 161 156 161 173 185 192 197 205 207 200 217 211 202 203 201 196 170 141 132 114 85 31
283 284 287 289 288 292 295 294 291 289 277 248 191 174 167 154 152 156 162 177 180 176 170 166 167 174 184 192 198 213 220 192 215 215 223 217 216 224 207 202 192 182 174 169
288 283 283 287 284 280 281 279 270 260 239 157 153 163 167 161 160 154 161 181 183 179 179 174 172 179 194 197 200 213 230 216 217 230 229 223 225 231 227 220 228 212 196 169
300 294 286 278 275 274 273 273 262 251 235 192 174 169 168 155 154 157 163 180 183 174 170 175 182 189 201 202 203 209 210 203 231 236 232 227 231 235 234 227 227 234 232 223
291 289 289 285 282 278 273 265 257 239 224 207 187 168 161 158 160 162 162 177 177 161 163 181 193 198 209 217 227 224 208 191 206 226 232 234 238 239 235 235 227 225 223 134
283 286 289 285 279 274 277 279 270 235 204 201 184 166 171 172 170 160 164 171 167 167 172 182 189 217 214 220 235 234 217 217 218 223 226 232 244 245 238 228 223 224 211 169
301 306 299 279 274 277 284 292 240 232 229 186 175 181 190 193 191 176 175 183 193 193 179 146 180 218 216 231 248 232 226 219 221 225 229 213 226 235 236 230 225 216 216 204
312 319 318 300 287 286 276 255 202 247 235 193 182 176 175 183 190 187 192 204 211 224 199 188 228 231 220 225 256 240 232 232 230 227 231 231 232 234 231 227 223 218 218 218
316 319 315 312 325 311 291 291 267 271 247 219 210 206 186 195 200 205 216 202 162 185 209 206 227 230 233 249 244 245 233 229 231 232 234 235 238 240 234 226 222 221 219 219
312 312 306 315 315 314 319 294 261 254 242 235 235 222 194 198 209 217 227 232 192 154 227 225 224 58 331 274 246 244 238 231 232 232 237 240 240 240 239 233 225 227 231 232
318 319 316 310 310 316 329 319 273 252 235 225 218 224 226 238 248 243 231 217 216 236 255 247 69 89 275 257 254 246 233 227 229 226 226 231 232 235 234 234 233 236 239 239
314 314 313 315 318 320 334 341 317 269 246 233 215 221 231 232 242 252 258 164 168 209 261 98 124 212 252 255 256 253 244 233 230 230 229 228 225 225 226 228 233 235 235 239
298 300 302 292 286 300 304 278 217 210 223 222 217 218 230 238 249 255 260 235 185 220 238 174 187 220 245 257 262 263 257 249 250 248 239 239 236 229 228 231 234 238 237 232
292 286 296 294 302 296 284 268 250 232 229 223 229 234 242 222 228 223 229 225 218 229 246 221 211 222 242 251 259 260 256 235 225 235 242 243 239 234 229 231 239 241 241 241
270 265 249 257 280 291 288 278 268 259 248 234 221 213 227 246 238 234 243 238 223 226 235 232 228 240 252 258 265 264 256 255 253 252 248 241 240 240 236 235 235 233 239 238